Location: The Saddle
(36.8333°N, 80.3417°W)
Time: 08:01:59
(UTC-04:00)

Vanguard 2 Rocket - Pass Details

Date: 08 February 2023
Orbit: 555 x 3316 km, 32.9° (Epoch: 27 March)

Event Time Altitude Azimuth Distance (km) Brightness Sun altitude
Rises 11:12:00 0° 265° (W) 3,756 9.9 34.6°
Reaches altitude 10° 11:15:11 10° 261° (W) 2,469 9.1 34.9°
Maximum altitude 11:20:25 53° 185° (S) 786 8.0 35.3°
Drops below altitude 10° 11:24:20 10° 107° (ESE) 1,851 9.1 35.6°
Sets 11:26:25 0° 102° (ESE) 2,717 9.7 35.7°
